Regional Weather Roundup
Issued by NWS

Home | Current Version | Previous Version | Text Only | Print | Product List | Glossary Off
Versions: 1 2 3 4 5 6 7 8 9 10 11 12 13 14 15 16 17 18 19 20 21 22 23 24 25 26 27 28 29 30 31 32 33 34 35 36 37 38 39 40 41 42 43 44 45 46 47 48 49 50

000
ASUS43 KLMK 300610
RWRKY
KENTUCKY REGIONAL WEATHER ROUNDUP
NATIONAL WEATHER SERVICE LOUISVILLE KY
200 AM EDT SAT AUG 30 2014

NOTE "FAIR" INDICATES FEW OR NO CLOUDS BELOW 12,000 FEET
WITH NO SIGNIFICANT WEATHER AND/OR OBSTRUCTIONS TO VISIBILITY.

KYZ001>023-026-027-061>063-070>075-300700-
WESTERN AND SOUTH CENTRAL KENTUCKY

CITY           SKY/WX    TMP DP  RH WIND       PRES   REMARKS
PADUCAH        FAIR      75  68  78 S3        30.00S
HENDERSON      MOCLDY    75  64  69 SW6       30.00R
OWENSBORO      NOT AVBL
HOPKINSVILLE   FAIR      76  65  67 SE7       30.03S
BOWLING GREEN  FAIR      71  65  81 CALM      30.05S
GLASGOW        FAIR      69  63  82 CALM      30.07R
$$

KYZ024-025-028>034-038-045-046-053-300700-
NORTH CENTRAL KENTUCKY

CITY           SKY/WX    TMP DP  RH WIND       PRES   REMARKS
LOUISVILLE/SDF FAIR      74  65  73 SE7       30.04R
LOUISVILLE/LOU FAIR      73  64  73 CALM      30.05R
FORT KNOX      FAIR      70  65  83 S5        30.04S
$$

KYZ035>037-039>044-047>052-055>060-089>105-300700-
NORTHEAST KENTUCKY

CITY           SKY/WX    TMP DP  RH WIND       PRES   REMARKS
LEXINGTON      FAIR      75  70  84 SE5       30.09S
COVINGTON      FAIR      73  68  84 S6        30.05F
FRANKFORT      FAIR      71  67  87 CALM      30.06S
$$

KYZ054-064>069-076>088-106>120-300700-
SOUTHEAST KENTUCKY

CITY           SKY/WX    TMP DP  RH WIND       PRES   REMARKS
JACKSON          N/A     74  69  85 SE5       30.12S
LONDON         FAIR      72  69  90 CALM      30.12S FOG
SOMERSET       FAIR      68  68 100 CALM      30.11S
MIDDLESBORO    FAIR      68  65  91 CALM      30.15R
MONTICELLO     FAIR      68  67  96 CALM      30.12R
$$



USA.gov is the U.S. government's official web portal to all federal, state and local government web resources and services.